Probability
2 1 0 0 1 2 2 1 1 1 0 0 0 0 0 0 0 0 0 0 0 0 0 0 0 0 0 0 0 0 0 0 0 1 3 2 1 0
2 1 0 0 1 1 1 1 2 2 1 0 0 0 0 0 0 0 0 1 1 0 0 0 0 0 0 0 0 0 0 0 0 0 1 1 0 0
1 0 0 0 1 1 1 1 2 2 1 0 0 0 0 0 1 1 1 1 1 0 0 0 0 0 0 0 0 0 0 0 0 0 0 0 0 0
0 0 0 0 1 1 0 1 1 1 0 0 0 0 1 2 1 1 1 1 1 0 0 0 0 0 0 0 0 0 0 0 0 0 0 0 0 0
0 0 0 0 0 0 0 0 0 0 0 0 0 0 1 2 1 0 1 2 1 0 0 0 0 0 0 0 0 0 0 0 0 0 0 0 0 0
0 0 0 0 0 0 0 0 0 0 0 0 0 0 1 1 1 0 1 2 2 1 1 0 0 0 0 0 0 0 0 0 0 0 0 0 0 0
0 0 0 0 0 0 0 0 0 0 0 0 0 0 0 0 0 0 0 2 2 2 2 1 0 1 1 0 0 0 0 0 0 0 0 0 0 0
0 0 0 0 0 0 0 0 0 0 0 0 0 0 0 0 0 0 0 1 1 1 2 2 1 2 2 1 0 0 0 0 0 0 0 0 0 0
0 0 0 0 0 0 0 0 0 0 0 0 0 0 0 0 0 0 1 1 1 1 1 1 2 2 1 0 0 0 0 0 0 0 0 0 0 0
0 0 0 0 0 0 0 0 0 0 0 0 0 0 0 0 0 0 0 1 1 2 1 0 1 1 0 0 0 0 0 0 0 0 0 0 0 0
0 0 0 0 0 0 0 0 0 0 0 0 0 0 0 0 0 0 0 0 1 1 1 0 0 0 0 0 0 0 0 0 0 0 0 0 0 0
0 0 0 0 0 0 0 0 0 0 0 0 0 0 0 0 0 0 0 0 0 0 0 0 0 0 0 0 0 0 0 0 0 0 0 0 0 0
0 0 0 0 0 0 0 0 0 0 0 0 0 0 0 0 0 0 0 0 0 0 0 0 0 0 0 0 0 0 0 0 0 0 0 0 0 0
0 0 0 0 0 0 0 0 0 0 0 0 0 0 0 0 0 0 0 0 0 0 0 0 0 0 0 0 0 0 0 0 0 0 0 0 0 0
0 0 0 0 0 0 0 0 0 0 0 0 0 0 0 0 0 0 0 0 0 0 0 0 0 0 0 0 0 0 0 0 0 0 0 0 0 0
0 0 0 0 0 0 0 0 0 0 0 0 0 0 0 0 0 0 0 0 0 0 0 0 0 0 0 0 0 0 0 0 0 0 0 0 0 0
0 0 0 0 0 0 0 0 0 0 0 0 0 0 0 0 0 0 0 0 0 0 0 0 0 0 0 0 0 0 0 0 0 0 0 0 0 0
0 0 0 0 0 0 0 0 0 0 0 0 0 0 0 0 0 0 0 0 0 0 0 0 0 0 0 0 0 0 0 0 0 0 0 0 0 0
0 0 0 0 0 0 0 0 0 0 0 0 0 0 0 0 0 0 0 0 0 0 0 0 0 0 0 0 0 0 0 0 0 0 0 0 0 0
0 0 0 0 0 0 0 0 0 0 0 0 0 0 0 0 0 0 0 0 0 0 0 0 0 0 0 0 0 0 0 0 0 0 0 0 0 0
0 0 0 0 0 0 0 0 0 0 0 0 0 0 0 0 0 0 0 0 0 0 0 0 0 0 0 0 0 0 0 0 0 0 0 0 0 0
0 0 0 0 0 0 0 0 0 0 0 0 0 0 0 0 0 0 0 0 0 0 0 0 0 0 0 0 0 0 0 0 0 0 0 0 0 0
0 0 0 0 0 0 0 0 0 0 0 0 0 0 0 0 0 0 0 0 0 0 0 0 0 0 0 0 0 0 0 0 0 0 0 0 0 0
Wind_Speed
3 3 2 0 1 2 3 4 6 8 7 4 4 5 5 6 4 7 7 3 6 6 6 8 9 10 11 12 12 13 14 17 20 24 27 29 29 29
1 2 0 1 1 2 3 3 4 6 7 7 6 7 8 8 5 7 6 4 7 6 6 7 8 9 10 10 10 10 12 16 20 23 25 26 25 26
3 3 3 3 2 2 2 3 3 4 7 7 7 7 8 9 8 7 5 5 5 7 4 5 7 8 9 9 8 8 11 15 20 23 25 25 24 24
5 4 4 3 2 3 3 3 3 3 6 8 8 7 8 8 8 7 5 4 4 6 4 3 5 6 7 7 6 7 10 15 19 22 24 24 24 23
6 6 5 5 4 4 4 4 4 4 4 6 6 6 6 7 8 7 6 4 5 4 6 5 2 4 5 4 3 4 9 13 17 21 23 23 22 21
7 6 6 6 6 5 4 4 5 6 4 5 5 6 6 8 7 7 6 4 5 3 2 1 2 1 2 2 1 3 7 12 16 19 20 20 19 18
7 7 8 7 6 6 6 7 7 7 6 6 6 6 7 8 8 7 8 7 5 3 3 3 3 3 2 2 2 4 7 10 14 16 17 18 17 16
7 6 6 5 3 2 1 3 5 7 8 8 7 8 8 9 9 8 8 7 5 3 3 3 2 3 3 2 5 6 7 10 12 14 15 16 15 14
6 4 5 7 6 5 1 5 3 2 2 7 8 9 9 10 11 11 9 8 6 4 3 3 2 3 3 2 10 9 9 9 11 12 13 13 13 13
6 6 6 7 8 9 6 6 5 5 4 6 7 7 8 9 10 10 9 8 4 3 3 2 1 2 2 3 9 11 11 10 11 11 12 12 12 12
6 7 6 7 9 11 6 6 6 5 2 2 4 6 8 8 9 9 10 9 7 4 4 3 2 2 2 2 5 12 12 12 12 12 12 12 12 11
6 7 10 8 8 11 7 7 7 8 8 6 3 4 5 4 4 7 9 9 8 6 5 4 3 2 1 1 2 5 7 10 12 12 13 13 13 11
4 5 7 6 6 7 7 7 7 10 9 7 6 6 7 6 8 8 8 8 8 7 7 6 4 2 1 1 1 2 4 5 7 9 12 14 14 13
3 5 7 3 3 4 5 6 9 10 6 6 7 7 8 8 8 9 9 8 6 7 7 7 4 4 2 1 0 1 2 3 5 6 7 11 13 14
5 6 3 1 3 3 2 5 7 6 7 7 7 7 7 8 8 7 7 7 7 6 6 7 6 4 3 2 1 1 1 2 3 5 5 6 7 7
5 6 7 6 3 1 1 2 5 6 6 7 7 7 7 7 7 8 8 8 7 6 7 8 7 6 4 4 2 2 1 1 2 3 4 4 4 5
1 4 3 2 2 3 3 4 5 5 5 6 6 7 7 7 7 8 7 8 7 8 8 8 7 4 5 5 3 3 3 1 0 2 3 3 2 3
4 2 2 2 3 4 4 4 4 5 6 6 6 7 7 7 7 7 7 7 8 8 8 8 8 6 2 4 7 5 3 2 1 1 2 3 3 3
5 2 2 2 2 3 3 4 5 5 5 5 6 7 7 7 7 7 7 8 7 7 7 7 8 8 7 5 5 7 6 3 2 2 2 2 3 3
5 2 2 1 0 2 3 4 4 4 4 5 5 6 6 7 7 7 7 9 9 8 7 7 8 9 8 6 5 4 6 5 3 3 2 2 3 4
5 4 3 3 2 0 1 2 3 3 4 4 4 5 6 6 6 7 7 6 7 7 8 7 7 7 6 4 4 4 5 5 5 3 2 0 2 3
6 5 5 4 3 2 2 2 2 1 1 3 3 4 5 5 6 7 7 7 7 7 8 6 6 6 6 6 6 6 5 4 4 5 6 5 2 1
7 6 6 6 6 5 4 4 4 2 1 2 2 3 4 5 5 5 6 6 7 8 8 7 6 5 6 5 5 6 7 7 4 3 3 4 4 2
Wind_Direction
195 196 245 280 279 294 289 295 303 306 312 322 326 330 320 314 312 293 291 204 213 245 269 283 291 291 284 272 259 242 224 207 195 188 184 183 184 185
117 80 1 0 350 317 316 310 298 301 306 319 319 325 332 312 299 294 290 187 214 232 263 288 297 298 295 280 259 238 216 197 185 180 179 178 179 181
120 106 82 30 2 340 328 315 315 312 303 313 321 329 323 315 316 304 287 260 221 196 241 289 305 311 310 294 265 229 203 188 180 176 174 173 175 177
99 91 79 72 46 6 344 340 334 315 302 313 320 326 327 328 324 311 304 278 266 162 199 277 309 319 318 307 271 222 193 181 175 172 169 169 171 174
92 86 74 59 40 33 356 358 341 333 320 308 321 337 337 350 335 327 319 309 281 188 191 216 274 324 327 322 285 206 182 172 168 166 165 166 169 172
88 81 68 55 37 14 8 2 349 331 332 323 343 348 354 354 344 341 333 324 298 276 236 217 178 254 327 351 75 162 168 164 161 159 159 160 162 167
98 85 71 59 39 6 4 1 352 342 344 345 351 358 3 354 353 341 335 329 313 293 272 241 219 233 204 170 148 141 148 154 155 155 154 156 161 168
100 98 107 81 80 147 72 8 360 353 354 343 358 360 358 353 345 334 339 338 331 335 299 274 246 245 233 198 150 148 150 149 149 151 154 160 166 172
93 76 59 58 17 21 108 185 151 154 306 323 357 357 350 353 337 334 341 333 325 331 308 278 247 252 244 174 157 165 165 160 157 157 161 166 171 177
89 75 63 50 27 351 3 23 30 42 18 0 360 350 355 343 330 320 320 317 320 16 0 312 280 255 245 199 174 178 179 176 174 173 173 176 180 187
88 64 48 55 20 343 360 19 17 15 149 206 268 282 284 288 307 328 339 335 340 2 22 341 322 275 234 217 188 187 187 186 185 186 187 188 189 193
118 107 70 43 19 357 5 14 9 357 342 334 299 284 302 317 300 340 344 340 341 343 10 347 338 329 298 217 190 185 195 197 197 198 198 197 192 205
118 101 82 49 30 7 357 19 352 315 316 331 341 349 351 356 356 357 354 342 342 342 346 341 331 334 315 308 187 187 198 193 195 205 208 204 198 209
88 83 87 58 27 10 19 358 315 308 334 349 353 355 354 357 354 347 346 338 331 329 335 338 327 329 321 312 228 181 198 189 188 196 201 194 200 211
83 76 79 246 252 177 85 312 317 355 358 358 360 356 351 351 340 340 342 336 320 331 353 348 341 338 337 336 349 158 176 183 194 194 191 186 188 193
144 154 197 227 248 20 313 338 16 24 357 359 357 352 348 350 352 353 350 347 342 344 354 353 354 357 2 11 20 37 57 163 185 193 181 181 185 193
183 173 162 121 74 50 37 27 11 13 4 2 356 353 353 353 355 357 354 350 352 350 352 353 349 6 44 22 24 33 32 30 93 157 165 163 166 175
270 153 98 60 39 28 17 18 23 20 2 354 357 353 352 353 352 353 358 359 355 355 356 353 349 346 353 62 26 23 28 21 52 99 132 143 145 139
240 155 112 73 40 27 15 11 14 23 359 353 358 354 350 351 354 355 359 358 356 355 357 357 360 359 357 5 36 25 12 12 28 64 87 108 123 126
230 183 168 161 17 11 17 12 4 7 6 357 1 355 350 350 355 354 360 1 349 350 357 6 11 1 348 340 341 19 22 13 21 36 60 88 102 104
207 200 198 207 225 211 33 350 345 359 4 341 360 354 349 348 355 352 355 2 342 350 357 5 4 335 324 334 346 16 38 43 30 20 3 4 158 170
228 219 207 213 217 213 219 251 277 320 329 328 3 350 349 349 351 351 353 351 354 353 352 356 358 357 4 8 6 9 14 22 63 75 65 38 11 20
230 229 223 202 207 212 217 222 245 256 299 339 344 348 350 350 347 352 355 355 358 354 346 355 360 7 11 7 11 10 8 5 2 2 66 40 23 15